GW2624 Weather Reports


time (UTC)temp
F
wind
direction
speed
knots
gust
knots
rain 1hr
in
rain 24hr
in
rain mn
in
humidity
%
barometer
mb
20260509231404 78 261 0.9 7.0 0.00 0.00 0.00 12 1001.7
20260509230904 79 271 3.5 10.4 0.00 0.00 0.00 11 1001.6
20260509230404 79 258 3.5 10.4 0.00 0.00 0.00 11 1001.6
20260509224404 81 313 2.6 13.9 0.00 0.00 0.00 10 1001.5
20260509223404 81 357 2.6 10.4 0.00 0.00 0.00 12 1001.5
20260509222404 80 227 3.5 10.4 0.00 0.00 0.00 11 1001.7
20260509221403 80 250 4.3 11.3 0.00 0.00 0.00 11 1001.9
20260509215904 81 281 2.6 7.0 0.00 0.00 0.00 13 1001.9
20260509214404 78 243 2.6 7.0 0.00 0.00 0.00 12 1002.1
20260509212904 78 302 2.6 7.8 0.00 0.00 0.00 13 1002.5
20260509211904 79 299 2.6 7.8 0.00 0.00 0.00 12 1002.7
20260509210404 80 278 1.7 7.8 0.00 0.00 0.00 13 1002.8
20260509205904 80 251 2.6 7.8 0.00 0.00 0.00 13 1002.8
20260509205405 79 269 1.7 4.3 0.00 0.00 0.00 14 1002.9
20260509204905 79 227 0.9 4.3 0.00 0.00 0.00 14 1003.0
20260509203904 78 319 2.6 10.4 0.00 0.00 0.00 14 1003.0
20260509202904 78 247 1.7 6.1 0.00 0.00 0.00 14 1003.3
20260509201404 80 244 1.7 6.1 0.00 0.00 0.00 14 1003.4
20260509200904 79 288 1.7 2.6 0.00 0.00 0.00 13 1003.5
20260509194404 80 223 1.7 7.0 0.00 0.00 0.00 14 1003.7
20260509193405 81 309 1.7 6.1 0.00 0.00 0.00 13 1003.7
20260509192904 80 314 2.6 6.1 0.00 0.00 0.00 14 1003.8
20260509192404 80 239 1.7 8.7 0.00 0.00 0.00 14 1003.9
20260509191904 80 332 2.6 8.7 0.00 0.00 0.00 14 1004.0
20260509191404 80 197 0.9 6.1 0.00 0.00 0.00 13 1004.1
20260509190404 80 254 1.7 5.2 0.00 0.00 0.00 13 1004.2
20260509185404 80 65 1.7 5.2 0.00 0.00 0.00 14 1004.4
20260509183404 79 224 1.7 6.1 0.00 0.00 0.00 13 1004.7
20260509182904 80 24 1.7 6.1 0.00 0.00 0.00 14 1004.8
20260509180904 79 298 1.7 6.1 0.00 0.00 0.00 15 1005.1
20260509180404 79 336 0.9 8.7 0.00 0.00 0.00 16 1005.1
20260509175904 78 257 1.7 8.7 0.00 0.00 0.00 17 1005.2
20260509175403 78 276 1.7 7.0 0.00 0.00 0.00 16 1005.3
20260509174904 78 317 1.7 6.1 0.00 0.00 0.00 16 1005.3
20260509172404 77 17 0.9 10.4 0.00 0.00 0.00 15 1005.8
20260509171904 77 310 2.6 6.1 0.00 0.00 0.00 15 1006.0
20260509170904 77 309 2.6 7.0 0.00 0.00 0.00 16 1006.1
20260509170404 77 318 2.6 5.2 0.00 0.00 0.00 16 1006.2
20260509164904 76 15 1.7 6.1 0.00 0.00 0.00 15 1006.1
20260509163904 76 324 1.7 6.1 0.00 0.00 0.00 16 1006.1
20260509163405 75 241 1.7 6.1 0.00 0.00 0.00 17 1005.9
20260509162904 75 256 1.7 4.3 0.00 0.00 0.00 19 1006.0
20260509162405 74 291 1.7 4.3 0.00 0.00 0.00 18 1005.9
20260509161904 73 252 0.9 6.1 0.00 0.00 0.00 22 1006.0
20260509160904 72 319 1.7 2.6 0.00 0.00 0.00 21 1006.1
20260509155404 70 211 0.9 2.6 0.00 0.00 0.00 23 1006.2
20260509154904 69 326 1.7 2.6 0.00 0.00 0.00 23 1006.2
20260509153904 68 279 0.9 2.6 0.00 0.00 0.00 23 1006.4
20260509152904 68 225 0.9 2.6 0.00 0.00 0.00 25 1006.6
20260509152404 68 192 0.0 2.6 0.00 0.00 0.00 25 1006.7
20260509151904 68 281 0.9 2.6 0.00 0.00 0.00 25 1006.8
20260509151404 68 296 0.9 2.6 0.00 0.00 0.00 26 1006.8
20260509150904 67 286 1.7 2.6 0.00 0.00 0.00 26 1006.7
20260509150405 67 16 0.9 2.6 0.00 0.00 0.00 26 1006.6
20260509145404 66 18 0.9 2.6 0.00 0.00 0.00 28 1006.5
20260509144905 65 295 0.9 2.6 0.00 0.00 0.00 27 1006.6
20260509143904 65 255 0.9 2.6 0.00 0.00 0.00 27 1006.7
20260509143404 64 246 0.9 2.6 0.00 0.00 0.00 28 1006.9
20260509141904 61 144 0.0 1.7 0.00 0.00 0.00 29 1006.8
20260509141404 61 144 0.0 1.7 0.00 0.00 0.00 30 1006.8
20260509135405 57 144 0.9 2.6 0.00 0.00 0.00 37 1006.9
20260509134904 56 144 0.9 2.6 0.00 0.00 0.00 39 1006.9
20260509134404 55 144 1.7 2.6 0.00 0.00 0.00 40 1007.0
20260509133904 54 146 0.9 2.6 0.00 0.00 0.00 42 1007.0
20260509133404 52 150 1.7 2.6 0.00 0.00 0.00 44 1007.0
20260509131404 49 149 0.0 0.9 0.00 0.00 0.00 47 1006.9
20260509130904 48 149 0.0 2.6 0.00 0.00 0.00 47 1006.9
20260509124404 48 146 0.0 2.6 0.00 0.00 0.00 46 1006.8
20260509122404 49 145 0.0 2.6 0.00 0.00 0.00 44 1006.4
20260509115904 48 138 1.7 2.6 0.00 0.00 0.00 45 1006.1
20260509113404 49 138 1.7 2.6 0.00 0.00 0.00 43 1006.1
20260509111904 49 138 0.9 2.6 0.00 0.00 0.00 43 1006.2
20260509111404 49 137 2.6 2.6 0.00 0.00 0.00 44 1006.2
20260509110404 49 138 0.0 2.6 0.00 0.00 0.00 43 1006.1
20260509105904 49 135 1.7 2.6 0.00 0.00 0.00 43 1006.1
20260509105404 49 142 2.6 2.6 0.00 0.00 0.00 44 1006.1
20260509104403 49 146 1.7 2.6 0.00 0.00 0.00 43 1006.1
20260509103905 49 146 1.7 2.6 0.00 0.00 0.00 44 1006.0
20260509103404 49 146 2.6 2.6 0.00 0.00 0.00 43 1006.1
20260509101904 50 147 0.9 2.6 0.00 0.00 0.00 42 1006.1
20260509101404 50 147 1.7 2.6 0.00 0.00 0.00 42 1006.0
20260509095903 50 155 1.7 4.3 0.00 0.00 0.00 42 1006.0
20260509094904 50 144 0.0 4.3 0.00 0.00 0.00 41 1005.9
20260509094404 50 142 2.6 4.3 0.00 0.00 0.00 42 1006.0
20260509093904 51 137 0.9 2.6 0.00 0.00 0.00 41 1006.0
20260509092404 51 140 0.9 2.6 0.00 0.00 0.00 41 1006.0
20260509091404 51 140 0.9 2.6 0.00 0.00 0.00 41 1006.0
20260509090404 51 136 1.7 2.6 0.00 0.00 0.00 40 1006.0
20260509085904 51 131 1.7 2.6 0.00 0.00 0.00 40 1005.9
20260509083904 52 0 2.6 5.2 0.00 0.00 0.00 39 1006.0
20260509082903 52 136 1.7 2.6 0.00 0.00 0.00 39 1006.1
20260509082404 52 106 1.7 2.6 0.00 0.00 0.00 39 1006.1
20260509080904 52 1 2.6 4.3 0.00 0.00 0.00 39 1006.2
20260509080404 52 121 1.7 2.6 0.00 0.00 0.00 39 1006.2
20260509075904 52 0 1.7 2.6 0.00 0.00 0.00 39 1006.2
20260509075404 52 137 1.7 4.3 0.00 0.00 0.00 39 1006.2
20260509074903 52 133 2.6 4.3 0.00 0.00 0.00 39 1006.3
20260509074403 52 0 1.7 2.6 0.00 0.00 0.00 39 1006.3
20260509073905 52 124 0.9 2.6 0.00 0.00 0.00 38 1006.3
20260509073404 53 13 1.7 2.6 0.00 0.00 0.00 38 1006.3
20260509072904 53 0 1.7 2.6 0.00 0.00 0.00 38 1006.3
20260509072404 53 11 2.6 2.6 0.00 0.00 0.00 38 1006.3
20260509071905 52 0 2.6 2.6 0.00 0.00 0.00 38 1006.4
20260509065904 52 0 2.6 4.3 0.00 0.00 0.00 38 1006.4
20260509065404 53 1 0.9 2.6 0.00 0.00 0.00 38 1006.5
20260509064904 53 0 0.9 2.6 0.00 0.00 0.00 38 1006.5
20260509064404 53 0 0.9 2.6 0.00 0.00 0.00 37 1006.6
20260509063904 53 0 1.7 2.6 0.00 0.00 0.00 37 1006.6
20260509063404 53 0 1.7 2.6 0.00 0.00 0.00 37 1006.6
20260509062904 53 125 0.9 2.6 0.00 0.00 0.00 38 1006.6
20260509061905 53 140 1.7 2.6 0.00 0.00 0.00 38 1006.7
20260509061404 53 114 0.9 2.6 0.00 0.00 0.00 38 1006.6
20260509060904 54 145 0.9 2.6 0.00 0.00 0.00 36 1006.6
20260509055404 54 138 0.9 2.6 0.00 0.00 0.00 37 1006.6
20260509054404 54 141 2.6 2.6 0.00 0.00 0.00 35 1006.6
20260509053904 54 144 0.9 2.6 0.00 0.00 0.00 35 1006.6
20260509052904 54 144 0.0 2.6 0.00 0.00 0.00 36 1006.7
20260509052404 54 144 0.9 2.6 0.00 0.00 0.00 36 1006.7
20260509051904 55 144 1.7 2.6 0.00 0.00 0.00 35 1006.8
20260509051404 55 144 0.9 2.6 0.00 0.00 0.00 35 1006.8
20260509045903 55 147 0.9 2.6 0.00 0.00 0.00 33 1006.9
20260509045404 56 142 0.9 2.6 0.00 0.00 0.00 34 1006.9
20260509044904 56 145 0.9 1.7 0.00 0.00 0.00 33 1006.9
20260509044403 56 145 0.0 1.7 0.00 0.00 0.00 33 1006.9
20260509042904 56 144 0.9 2.6 0.00 0.00 0.00 33 1007.0
20260509042404 56 104 0.0 2.6 0.00 0.00 0.00 33 1006.9
20260509041404 57 136 0.0 1.7 0.00 0.00 0.00 33 1006.9
20260509040404 57 0 0.9 2.6 0.00 0.00 0.00 31 1006.7
20260509035904 58 0 0.9 1.7 0.00 0.00 0.00 32 1006.8
20260509035404 58 0 0.0 1.7 0.00 0.00 0.00 31 1006.7
20260509034904 59 165 0.0 1.7 0.00 0.00 0.00 30 1006.6
20260509033404 61 81 0.9 2.6 0.00 0.00 0.00 27 1006.3
20260509032903 62 158 0.0 1.7 0.00 0.00 0.00 26 1006.3
20260509032404 63 158 0.9 1.7 0.00 0.00 0.00 26 1006.3
20260509031905 63 158 0.9 1.7 0.00 0.00 0.00 24 1006.1
20260509031404 64 158 0.9 1.7 0.00 0.00 0.00 23 1006.0
20260509025404 68 236 0.9 2.6 0.00 0.00 0.00 20 1005.7
20260509024403 69 202 0.0 2.6 0.00 0.00 0.00 19 1005.5
20260509023405 69 269 1.7 5.2 0.00 0.00 0.00 17 1005.3
20260509022405 70 228 1.7 5.2 0.00 0.00 0.00 17 1005.0
20260509020404 72 245 0.9 2.6 0.00 0.00 0.00 17 1004.6
20260509014405 73 279 0.9 6.1 0.00 0.00 0.00 18 1004.4
20260509013403 74 224 0.9 2.6 0.00 0.00 0.00 17 1004.3
20260509012904 74 127 0.0 0.0 0.00 0.00 0.00 18 1004.3
20260509011405 75 328 0.0 2.6 0.00 0.00 0.00 17 1004.4
20260509005904 75 38 1.7 2.6 0.00 0.00 0.00 17 1004.5
20260509004903 75 136 0.9 1.7 0.00 0.00 0.00 16 1004.4
20260509004404 75 78 0.0 2.6 0.00 0.00 0.00 17 1004.4
20260509001904 76 116 0.0 2.6 0.00 0.00 0.00 16 1004.6
20260509000404 77 193 1.7 2.6 0.00 0.00 0.00 16 1004.7
20260508235904 77 239 1.7 6.1 0.00 0.00 0.00 15 1004.6
20260508235404 77 248 1.7 6.1 0.00 0.00 0.00 16 1004.7
20260508233904 76 269 1.7 4.3 0.00 0.00 0.00 16 1004.7
20260508233404 77 79 2.6 4.3 0.00 0.00 0.00 16 1004.7
20260508232905 77 109 1.7 6.1 0.00 0.00 0.00 15 1004.6
20260508231906 78 105 2.6 6.1 0.00 0.00 0.00 14 1004.8